Regional Weather Roundup
Issued by NWS

Home | Current Version | Previous Version | Text Only | Print | Product List | Glossary On
Versions: 1 2 3 4 5 6 7 8 9 10 11 12 13 14 15 16 17 18 19 20 21 22 23 24 25 26 27
000
ASUS44 KLIX 302111
RWRLA
LOUISIANA WEATHER ROUNDUP
NATIONAL WEATHER SERVICE NEW ORLEANS LA
300 PM CST MON JAN 30 2023

NOTE: "FAIR" INDICATES FEW OR NO CLOUDS BELOW 12,000 FEET WITH NO
      SIGNIFICANT WEATHER AND/OR OBSTRUCTIONS TO VISIBILITY.
      SKY/WX - SKY CONDITION AND SIGNIFICANT WEATHER.
      TMP - AIR TEMPERATURE.    DP   - DEWPOINT TEMPERATURE.
      RH  - RELATIVE HUMIDITY.  PRES - PRESSURE.
      HX  - HEAT INDEX.         WCI  - WIND CHILL INDEX.

*  THESE STATIONS ARE NOT NWS OR FAA STATIONS AND ARE NOT UNDER
   NWS QUALITY CONTROL.

LAZ048-061-063-065-066-069-076-077-302200-
SOUTHEAST LOUISIANA

CITY           SKY/WX    TMP DP  RH WIND       PRES   REMARKS
N.O. INTL ARPT PTSUNNY   77  68  73 N9        30.08S
N.O. DWNTWN HE NOT AVBL
N.O. LAKEFRONT MOSUNNY   69  64  84 N7        30.09F
RESERVE*       PTSUNNY   79  66  65 W6        30.08S
SLIDELL        CLOUDY    76  69  79 NW3       30.08F
BATON ROUGE    CLOUDY    68  67  96 MISG      30.09S
BOOTHVILLE*    PTSUNNY   77  69  76 W6        30.11S
BELLE CHASSE*  PTSUNNY   81  68  64 S10       30.07F
BOGALUSA*      CLOUDY    69  66  92 N6        30.11R
GALLIANO*      CLOUDY    76  69  79 S7        30.10S
NEW ROADS*     CLOUDY    65  64  96 CALM      30.11S
GONZALES*      FAIR      78  68  70 W6        30.07F
HAMMOND*       CLOUDY    72  69  92 N5        30.09R
HOUMA*         PTSUNNY   79  68  69 S10       30.09R

$$

LAZ041-044-053-054-302200-
SOUTHWEST LOUISIANA

CITY           SKY/WX    TMP DP  RH WIND       PRES   REMARKS
LAKE CHARLES   CLOUDY    60  59  96 N9        30.09F FOG
LAFAYETTE      CLOUDY    68  65  90 N7        30.09S FOG
PATTERSON      MOSUNNY   76  68  76 S6        30.09S
SALT POINT       N/A     65  64  97 CALM      30.08R
NEW IBERIA     CLOUDY    69  67  93 N3        30.08S FOG
CHENAULT AIRPK CLOUDY    61  59  94 N8        30.10F FOG

$$

LAZ027-028-302200-
CENTRAL LOUISIANA

CITY           SKY/WX    TMP DP  RH WIND       PRES   REMARKS
FORT POLK      CLOUDY    53  53  99 NW8       30.11F FOG
ALEXANDRIA INT CLOUDY    56  53  90 NW9       30.10F
ALEXANDRIA     CLOUDY    62  59  90 E6        30.11F

$$

LAZ001-002-302200-
NORTHWEST LOUISIANA

CITY           SKY/WX    TMP DP  RH WIND       PRES   REMARKS
SHREVEPORT     NOT AVBL
BARKSDALE AFB  DRIZZLE   43  41  93 NW7       30.17F FOG
DTN SHREVEPORT CLOUDY    44  42  93 NW8       30.19S FOG

$$

LAZ014-016-302200-
NORTHEAST LOUISIANA

CITY           SKY/WX    TMP DP  RH WIND       PRES   REMARKS
MONROE         CLOUDY    49  47  93 E10       30.18F FOG
TALLULAH       CLOUDY    50  48  93 N13G20    30.16F FOG

$$




USA.gov is the U.S. government's official web portal to all federal, state and local government web resources and services.